F1DKL-13 Weather Reports


Display with metric or nautical units.
time (UTC)temp
F
wind
direction
speed
MPH
gust
MPH
rain 1hr
in
rain 24hr
in
rain mn
in
humidity
%
barometer
mb
20260507110506 72 0 0.0 0.0 0.00 0.04 0.00 3 1019.3
20260507110006 73 0 0.0 0.0 0.00 0.04 0.00 3 1019.3
20260507105506 74 0 0.0 0.0 0.00 0.04 0.00 2 1019.3
20260507105006 74 0 0.0 0.0 0.00 0.04 0.00 2 1019.3
20260507104506 74 0 0.0 0.0 0.00 0.04 0.00 2 1019.3
20260507104006 74 0 0.0 0.0 0.00 0.04 0.00 2 1019.3
20260507103506 74 0 0.0 0.0 0.00 0.04 0.00 2 1019.3
20260507103006 74 0 0.0 0.0 0.00 0.04 0.00 2 1019.3
20260507102506 74 0 0.0 0.0 0.00 0.04 0.00 2 1020.4
20260507102007 74 0 0.0 0.0 0.00 0.04 0.00 2 1020.4
20260507101507 74 0 0.0 0.0 0.00 0.04 0.00 8 1020.4
20260507101006 73 0 0.0 0.0 0.00 0.04 0.00 14 1020.4
20260507100506 73 0 0.0 0.0 0.00 0.04 0.00 6 1020.4
20260507100006 73 0 0.0 0.0 0.00 0.04 0.00 22 1020.4
20260507095506 73 0 0.0 0.0 0.00 0.08 0.00 19 1020.4
20260507095006 72 0 0.0 0.0 0.00 0.08 0.00 21 1020.4
20260507094506 71 0 0.0 0.0 0.00 0.08 0.00 22 1020.4
20260507094006 71 0 0.0 0.0 0.00 0.08 0.00 22 1020.4
20260507093506 71 0 0.0 0.0 0.00 0.08 0.00 22 1020.4
20260507093006 71 0 0.0 0.0 0.00 0.08 0.00 25 1020.4
20260507092506 70 0 0.0 0.0 0.00 0.08 0.00 23 1020.4
20260507092006 70 0 0.0 0.0 0.00 0.08 0.00 31 1020.4
20260507091506 69 0 0.0 0.0 0.00 0.08 0.00 28 1020.4
20260507091006 69 0 0.0 0.0 0.00 0.08 0.00 28 1020.4
20260507090506 69 0 0.0 0.0 0.00 0.08 0.00 32 1020.4
20260507090006 69 0 0.0 0.0 0.00 0.08 0.00 32 1020.4
20260507085506 69 0 0.0 0.0 0.00 0.08 0.00 33 1020.4
20260507085006 68 0 0.0 0.0 0.00 0.08 0.00 33 1020.4
20260507084506 68 0 0.0 0.0 0.00 0.08 0.00 33 1020.4
20260507084006 67 0 0.0 0.0 0.00 0.08 0.00 33 1020.4
20260507083506 67 0 0.0 0.0 0.00 0.08 0.00 34 1020.4
20260507083006 66 0 0.0 0.0 0.00 0.08 0.00 34 1020.4
20260507082506 67 0 0.0 0.0 0.00 0.08 0.00 34 1020.4
20260507082006 67 0 0.0 0.0 0.00 0.08 0.00 33 1020.4
20260507081506 68 0 0.0 0.0 0.00 0.12 0.00 39 1020.4
20260507081006 68 0 0.0 0.0 0.00 0.12 0.00 40 1020.4
20260507080506 67 0 0.0 0.0 0.00 0.12 0.00 44 1020.4
20260507080006 65 0 0.0 0.0 0.00 0.12 0.00 43 1020.4
20260507075506 64 0 0.0 0.0 0.00 0.12 0.00 44 1020.4
20260507075006 64 0 0.0 0.0 0.00 0.12 0.00 44 1020.4
20260507074505 63 0 0.0 0.0 0.00 0.12 0.00 45 1020.4
20260507074006 63 0 0.0 0.0 0.00 0.12 0.00 45 1020.4
20260507073505 62 0 0.0 0.0 0.00 0.12 0.00 48 1020.4
20260507073005 62 0 0.0 0.0 0.00 0.12 0.00 52 1020.4
20260507072505 62 0 0.0 0.0 0.00 0.12 0.00 55 1019.3
20260507072006 61 0 0.0 0.0 0.00 0.12 0.00 55 1019.3
20260507071505 60 0 0.0 0.0 0.00 0.12 0.00 57 1019.3
20260507071005 60 0 0.0 0.0 0.00 0.12 0.00 60 1020.4
20260507055505 46 0 0.0 0.0 0.00 0.16 0.00 98 1020.4
20260507055005 46 0 0.0 0.0 0.00 0.16 0.00 98 1020.4
20260507054505 45 0 0.0 0.0 0.00 0.16 0.00 98 1020.4
20260507054006 44 0 0.0 0.0 0.00 0.16 0.00 98 1020.4
20260507053506 43 0 0.0 0.0 0.00 0.16 0.00 98 1020.4
20260507053005 42 0 0.0 0.0 0.00 0.21 0.00 98 1020.4
20260507052505 40 0 0.0 0.0 0.00 0.21 0.00 87 1020.4
20260507052005 40 0 0.0 0.0 0.00 0.21 0.00 87 1020.4
20260507051505 40 0 0.0 0.0 0.00 0.21 0.00 87 1020.4
20260507051005 40 0 0.0 0.0 0.00 0.21 0.00 87 1020.4
20260507050505 40 0 0.0 0.0 0.00 0.21 0.00 87 1020.4
20260507050006 39 0 0.0 0.0 0.00 0.21 0.00 86 1020.4
20260507045505 39 0 0.0 0.0 0.00 0.21 0.00 85 1020.4
20260507045005 39 0 0.0 0.0 0.00 0.21 0.00 84 1020.4
20260507044505 39 0 0.0 0.0 0.00 0.21 0.00 84 1020.4
20260507044005 39 0 0.0 0.0 0.00 0.21 0.00 83 1020.4
20260507043505 39 0 0.0 0.0 0.00 0.21 0.00 83 1020.4
20260507043005 39 0 0.0 0.0 0.00 0.21 0.00 83 1020.4
20260507042505 39 0 0.0 0.0 0.00 0.21 0.00 83 1020.4
20260507042005 39 0 0.0 0.0 0.00 0.21 0.00 82 1020.4
20260507041505 39 0 0.0 0.0 0.00 0.21 0.00 82 1020.4
20260507041005 39 0 0.0 0.0 0.00 0.21 0.00 82 1020.4
20260507040505 39 0 0.0 0.0 0.00 0.21 0.00 82 1020.4
20260507040005 39 0 0.0 0.0 0.00 0.21 0.00 81 1020.4
20260506183005 50 0 0.0 0.0 0.00 0.37 0.37 54 1017.2
20260506182505 51 0 0.0 0.0 0.00 0.37 0.37 53 1017.2
20260506182005 51 0 0.0 0.0 0.00 0.37 0.37 54 1017.2
20260506181505 52 0 0.0 0.0 0.00 0.37 0.37 52 1017.2
20260506181005 52 0 0.0 0.0 0.00 0.37 0.37 52 1016.1
20260506180505 53 0 0.0 0.0 0.00 0.37 0.37 50 1016.1
20260506180006 53 0 0.0 0.0 0.00 0.37 0.37 50 1016.1
20260506175505 54 0 0.0 0.0 0.00 0.37 0.37 49 1017.2
20260506175005 54 0 0.0 0.0 0.00 0.37 0.37 49 1017.2
20260506174505 55 0 0.0 0.0 0.00 0.37 0.37 48 1017.2
20260506174005 55 0 0.0 0.0 0.00 0.37 0.37 47 1017.2
20260506173505 56 0 0.0 0.0 0.00 0.37 0.37 47 1017.2
20260506173005 56 0 0.0 0.0 0.00 0.37 0.37 46 1017.2
20260506172505 56 0 0.0 0.0 0.00 0.37 0.37 45 1017.2
20260506172005 56 0 0.0 0.0 0.00 0.37 0.37 44 1017.2
20260506171505 56 0 0.0 0.0 0.00 0.37 0.37 44 1017.2
20260506171005 56 0 0.0 0.0 0.00 0.37 0.37 45 1017.2
20260506170505 57 0 0.0 0.0 0.00 0.37 0.37 45 1017.2
20260506170005 57 0 0.0 0.0 0.00 0.37 0.37 44 1017.2
20260506165505 57 0 0.0 0.0 0.00 0.37 0.37 44 1017.2
20260506165005 57 0 0.0 0.0 0.00 0.37 0.37 43 1017.2
20260506164505 57 0 0.0 0.0 0.00 0.37 0.37 44 1017.2
20260506164005 57 0 0.0 0.0 0.00 0.37 0.37 44 1017.2
20260506163505 57 0 0.0 0.0 0.00 0.37 0.37 44 1017.2
20260506163005 57 0 0.0 0.0 0.00 0.37 0.37 43 1017.2
20260506162505 57 0 0.0 0.0 0.00 0.37 0.37 44 1017.2
20260506162005 57 0 0.0 0.0 0.00 0.37 0.37 43 1017.2
20260506161505 57 0 0.0 0.0 0.00 0.37 0.37 44 1017.2
20260506160005 57 0 0.0 0.0 0.00 0.37 0.37 44 1017.2
20260506155005 57 0 0.0 0.0 0.00 0.37 0.37 44 1017.2
20260506154505 58 0 0.0 0.0 0.00 0.37 0.37 46 1017.2
20260506154005 58 0 0.0 0.0 0.00 0.37 0.37 46 1018.3
20260506153505 58 0 0.0 0.0 0.00 0.37 0.37 47 1018.3
20260506153005 57 0 0.0 0.0 0.00 0.37 0.37 48 1018.3
20260506152505 56 0 0.0 0.0 0.00 0.37 0.37 47 1018.3
20260506152005 56 0 0.0 0.0 0.00 0.37 0.37 48 1018.3
20260506151505 56 0 0.0 0.0 0.00 0.37 0.37 48 1018.3
20260506151005 56 0 0.0 0.0 0.00 0.37 0.37 47 1017.2
20260506150505 55 0 0.0 0.0 0.00 0.37 0.37 47 1017.2
20260506150005 56 0 0.0 0.0 0.00 0.37 0.37 48 1017.2
20260506145505 56 0 0.0 0.0 0.00 0.37 0.37 49 1018.3
20260506145005 55 0 0.0 0.0 0.00 0.37 0.37 49 1018.3
20260506144505 55 0 0.0 0.0 0.00 0.37 0.37 49 1018.3
20260506144005 55 0 0.0 0.0 0.00 0.37 0.37 48 1018.3
20260506143505 55 0 0.0 0.0 0.00 0.37 0.37 48 1018.3
20260506143005 55 0 0.0 0.0 0.00 0.37 0.37 47 1018.3
20260506142505 55 0 0.0 0.0 0.00 0.37 0.37 45 1018.3
20260506142005 56 0 0.0 0.0 0.00 0.37 0.37 41 1018.3
20260506141505 57 0 0.0 0.0 0.00 0.37 0.37 41 1018.3
20260506141005 58 0 0.0 0.0 0.00 0.37 0.37 39 1016.1
20260506140505 59 0 0.0 0.0 0.00 0.37 0.37 38 1016.1
20260506140005 61 0 0.0 0.0 0.00 0.37 0.37 36 1016.1
20260506135504 63 0 0.0 0.0 0.00 0.37 0.37 38 1016.1
20260506135005 63 0 0.0 0.0 0.00 0.37 0.37 37 1016.1
20260506134504 63 0 0.0 0.0 0.00 0.37 0.37 36 1016.1
20260506134005 65 0 0.0 0.0 0.00 0.37 0.37 36 1016.1
20260506133505 67 0 0.0 0.0 0.00 0.37 0.37 35 1016.1
20260506133005 68 0 0.0 0.0 0.00 0.37 0.37 36 1016.1
20260506132505 67 0 0.0 0.0 0.00 0.37 0.37 39 1016.1
20260506132005 68 0 0.0 0.0 0.00 0.37 0.37 38 1016.1
20260506131505 67 0 0.0 0.0 0.00 0.37 0.37 39 1016.1
20260506131005 67 0 0.0 0.0 0.00 0.37 0.37 45 1017.2
20260506130504 66 0 0.0 0.0 0.00 0.37 0.37 48 1017.2
20260506130005 65 0 0.0 0.0 0.00 0.37 0.37 53 1017.2
20260506125504 62 0 0.0 0.0 0.00 0.37 0.37 54 1017.2
20260506125004 60 0 0.0 0.0 0.00 0.37 0.37 53 1017.2
20260506124505 58 0 0.0 0.0 0.00 0.37 0.37 51 1017.2
20260506124005 58 0 0.0 0.0 0.00 0.37 0.37 49 1016.1
20260506123504 58 0 0.0 0.0 0.00 0.37 0.37 48 1016.1
20260506123004 58 0 0.0 0.0 0.00 0.37 0.37 47 1016.1
20260506122504 59 0 0.0 0.0 0.00 0.37 0.37 45 1016.1
20260506122005 60 0 0.0 0.0 0.00 0.37 0.37 46 1016.1
20260506121505 61 0 0.0 0.0 0.04 0.37 0.37 47 1016.1
20260506121005 62 0 0.0 0.0 0.04 0.37 0.37 46 1017.2
20260506120505 63 0 0.0 0.0 0.04 0.37 0.37 49 1017.2
20260506120005 63 0 0.0 0.0 0.04 0.37 0.37 51 1017.2
20260506115505 62 0 0.0 0.0 0.04 0.37 0.37 58 1017.2
20260506115004 60 0 0.0 0.0 0.04 0.37 0.37 58 1017.2
20260506114505 58 0 0.0 0.0 0.04 0.37 0.37 58 1017.2
20260506114005 58 0 0.0 0.0 0.04 0.37 0.37 58 1017.2
20260506113504 58 0 0.0 0.0 0.04 0.37 0.37 55 1017.2
20260506113004 59 0 0.0 0.0 0.04 0.41 0.37 56 1017.2
20260506112504 58 0 0.0 0.0 0.04 0.41 0.37 54 1017.2